UHMMUEEE

Guest
Details From UHMM - Magadan Sokol
To UEEE - Yakutsk
Flight Number -
Tags decoded
Created
Modified
Stats Distance 624 nm / 1,155 km
Max Altitude 0 ft / 0 m
Waypoints 5
Social Downloads 1
Likes 0
Share VATSIM

Download

Looking for another format? Having issues loading an existing format? Contact us
Advertisement - Login to hide

Notes

Requested: UHMM BISMA A949 INLIR G370 RITIS UEEE Unmatched points: A949 G370

Route

UHMM BISMA INLIR RITIS UEEE

ID Type Via Altitude Latitude Longitude Leg Dist Tot Dist Heading (true) Name
O UHMM APT - 0 ft / 0 m 59.91099˚ 150.72044˚ - 0 nm - Magadan Sokol
BISMA FIX - 0 ft / 0 m 59.98306˚ 149.97750˚ 22 nm 22 nm 281° / 281° -
INLIR FIX - 0 ft / 0 m 60.30694˚ 145.94028˚ 122 nm 144 nm 281° / 277° -
RITIS FIX - 0 ft / 0 m 61.92722˚ 132.61806˚ 397 nm 542 nm 290° / 278° -
O UEEE APT - 0 ft / 0 m 62.09325˚ 129.77068˚ 80 nm 623 nm 278° / 276° Yakutsk

Altitude Profile

Advertisement - Login to hide

Weather


0- 5 10 15 20 25 30 35+ Temperature / ° C

Clouds and Precipitation
Forecast for 2018-06-23 00:00 UTC. Updated an hour ago

Ground ~20,000 ft ~40,000 ft Winds

UHMM

Details ICAO UHMM (GDX)
Name Magadan Sokol
Region Russia
Timezone Asia/Magadan (UTC+11.0)
Stats Elevation 574 ft / 175 m (AMSL)
Location 59.910989° 150.720439°
Runways 1
Magnetic Variation 10.996° W

METAR

UHMM 222230Z 06003MPS 360V110 9999 NSC 19/08 Q1007 R10/70D NOSIG RMK QFE740

Decode

TAF

TAF UHMM 221953Z 2221/2403 11003G08MPS 9999 SCT030CB BKN070

Decode

Departure Runways

ID Width Length Bearing (true) Bearing (mag) Surface Threshold Offset Overrun Length
10 194 ft / 59 m 11,299 ft / 3,444 m 93.20° 104.20° Concrete 0 ft / 0 m 1,975 ft / 602 m
28 194 ft / 59 m 11,299 ft / 3,444 m 273.26° 284.26° Concrete 0 ft / 0 m 220 ft / 67 m

UEEE

Details ICAO UEEE (YKS)
Name Yakutsk
Region Russia
Timezone Asia/Yakutsk (UTC+9.0)
Stats Elevation 325 ft / 99 m (AMSL)
Location 62.093249° 129.770678°
Runways 2
Magnetic Variation 15.678° W

METAR

UEEE 222230Z 08001MPS CAVOK 16/10 Q1011 R23L/09//60 NOSIG RMK QFE749

Decode

TAF

TAF UEEE 222000Z 2221/2403 04003G08MPS 9999 SCT030CB BKN100

Decode

Destination Runways

ID Width Length Bearing (true) Bearing (mag) Surface Threshold Offset Overrun Length
05L 161 ft / 49 m 8,171 ft / 2,491 m 29.51° 45.19° Concrete 0 ft / 0 m 154 ft / 47 m
05R 197 ft / 60 m 11,120 ft / 3,389 m 36.88° 52.56° Asphalt 0 ft / 0 m 226 ft / 69 m
23L 197 ft / 60 m 11,120 ft / 3,389 m 216.92° 232.60° Asphalt 0 ft / 0 m 226 ft / 69 m
23R 161 ft / 49 m 8,171 ft / 2,491 m 209.53° 225.21° Concrete 3,399 ft / 1,036 m 164 ft / 50 m

Approach Navaids

Runway Type Ident Frequency Range Bearing (true) Bearing (mag) Slope Elevation
23L Localiser IMF 111.70 MHz 18 nm / 33 km 216.60° 232.28° - 325 ft / 99 m (AMSL)
23L Glidescope IMF 111.70 MHz 10 nm / 19 km 216.90° 232.58° 3.00° 325 ft / 99 m (AMSL)

Popular Alternatives